TimeCST,TemperatureF,Dew PointF,Humidity,Sea Level PressureIn,VisibilityMPH,Wind Direction,Wind SpeedMPH,Gust SpeedMPH,PrecipitationIn,Events,Conditions,WindDirDegrees,DateUTC
12:15 AM,8.8,0.9,70,30.24,10.0,North,-9999.0,-,N/A,,Clear,0,2014-01-05 06:15:00
12:35 AM,8.6,0.5,70,30.25,10.0,North,-9999.0,-,N/A,,Scattered Clouds,0,2014-01-05 06:35:00
12:55 AM,8.4,0.3,70,30.24,10.0,North,-9999.0,-,N/A,,Scattered Clouds,0,2014-01-05 06:55:00
1:15 AM,8.1,-0.0,70,30.25,10.0,North,-9999.0,-,N/A,,Mostly Cloudy,0,2014-01-05 07:15:00
1:35 AM,7.7,-0.4,70,30.26,10.0,North,-9999.0,-,N/A,,Scattered Clouds,0,2014-01-05 07:35:00
1:55 AM,7.3,-0.8,69,30.27,10.0,North,-9999.0,-,N/A,,Clear,0,2014-01-05 07:55:00
2:15 AM,7.2,-0.8,70,30.26,10.0,North,-9999.0,-,N/A,,Clear,0,2014-01-05 08:15:00
2:35 AM,7.7,-0.9,68,30.27,10.0,North,-9999.0,-,N/A,,Clear,0,2014-01-05 08:35:00
2:55 AM,7.7,-1.1,67,30.27,10.0,North,-9999.0,-,N/A,,Mostly Cloudy,0,2014-01-05 08:55:00
3:15 AM,7.2,-1.5,68,30.27,10.0,North,-9999.0,-,N/A,,Mostly Cloudy,0,2014-01-05 09:15:00
3:35 AM,6.8,-2.4,66,30.27,10.0,North,-9999.0,-,N/A,,Scattered Clouds,0,2014-01-05 09:35:00
3:55 AM,6.4,-2.9,65,30.27,10.0,North,-9999.0,-,N/A,,Clear,0,2014-01-05 09:55:00
4:15 AM,6.4,-3.6,63,30.28,10.0,North,-9999.0,-,N/A,,Mostly Cloudy,0,2014-01-05 10:15:00
4:35 AM,6.4,-3.6,63,30.28,10.0,North,-9999.0,-,N/A,,Overcast,0,2014-01-05 10:35:00
4:55 AM,6.1,-4.2,63,30.28,10.0,North,-9999.0,-,N/A,,Overcast,0,2014-01-05 10:55:00
5:15 AM,5.9,-4.4,63,30.29,10.0,North,-9999.0,-,N/A,,Overcast,0,2014-01-05 11:15:00
5:35 AM,5.5,-5.3,61,30.29,10.0,North,-9999.0,-,N/A,,Overcast,0,2014-01-05 11:35:00
5:55 AM,5.5,-4.7,63,30.30,10.0,North,-9999.0,-,N/A,,Overcast,0,2014-01-05 11:55:00
6:15 AM,5.4,-5.1,62,30.31,10.0,North,-9999.0,-,N/A,,Overcast,0,2014-01-05 12:15:00
6:35 AM,5.0,-5.1,63,30.32,10.0,North,23.0,-,N/A,,Overcast,350,2014-01-05 12:35:00
6:55 AM,4.8,-5.4,63,30.33,10.0,North,25.3,-,N/A,,Overcast,350,2014-01-05 12:55:00
7:15 AM,3.7,-7.2,60,30.34,10.0,North,23.0,31.1,N/A,,Overcast,350,2014-01-05 13:15:00
7:35 AM,3.2,-8.5,58,30.34,10.0,North,21.9,-,N/A,,Overcast,350,2014-01-05 13:35:00
7:55 AM,2.3,-8.3,61,30.35,10.0,North,20.7,25.3,N/A,,Mostly Cloudy,350,2014-01-05 13:55:00
8:15 AM,1.8,-8.7,62,30.36,10.0,North,17.3,-,N/A,,Scattered Clouds,350,2014-01-05 14:15:00
8:35 AM,1.4,-9.4,61,30.36,10.0,North,17.3,26.5,N/A,,Scattered Clouds,350,2014-01-05 14:35:00
8:55 AM,2.3,-9.0,59,30.37,10.0,North,-9999.0,-,N/A,,Overcast,0,2014-01-05 14:55:00
9:15 AM,2.8,-9.4,57,30.37,10.0,North,23.0,29.9,N/A,,Overcast,360,2014-01-05 15:15:00
9:35 AM,3.7,-8.1,58,30.38,10.0,North,21.9,-,N/A,,Overcast,350,2014-01-05 15:35:00
9:55 AM,4.1,-7.6,58,30.39,10.0,North,-9999.0,-,N/A,,Overcast,0,2014-01-05 15:55:00
10:15 AM,3.7,-7.6,59,30.40,10.0,North,-9999.0,-,N/A,,Overcast,0,2014-01-05 16:15:00
10:35 AM,4.5,-7.2,58,30.41,10.0,North,-9999.0,-,N/A,,Scattered Clouds,0,2014-01-05 16:35:00
10:55 AM,5.7,-5.6,60,30.41,10.0,North,-9999.0,-,N/A,,Clear,0,2014-01-05 16:55:00
11:15 AM,6.8,-4.9,59,30.41,10.0,North,-9999.0,-,N/A,,Clear,0,2014-01-05 17:15:00
11:35 AM,7.9,-4.2,58,30.40,10.0,North,-9999.0,-,N/A,,Clear,0,2014-01-05 17:35:00
11:55 AM,8.1,-4.4,57,30.40,10.0,North,-9999.0,-,N/A,,Scattered Clouds,0,2014-01-05 17:55:00
12:15 PM,9.5,-2.9,57,30.39,10.0,North,-9999.0,-,N/A,,Scattered Clouds,0,2014-01-05 18:15:00
12:35 PM,10.6,-2.6,56,30.39,10.0,North,-9999.0,-,N/A,,Clear,0,2014-01-05 18:35:00
12:55 PM,10.8,-2.6,55,30.39,10.0,North,-9999.0,-,N/A,,Scattered Clouds,0,2014-01-05 18:55:00
1:15 PM,11.3,-2.6,54,30.38,10.0,North,-9999.0,-,N/A,,Clear,0,2014-01-05 19:15:00
1:35 PM,11.3,-3.6,51,30.38,10.0,North,-9999.0,-,N/A,,Clear,0,2014-01-05 19:35:00
1:55 PM,11.3,-2.6,54,30.39,10.0,North,-9999.0,-,N/A,,Scattered Clouds,0,2014-01-05 19:55:00
2:15 PM,11.5,-2.0,55,30.39,10.0,North,-9999.0,-,N/A,,Overcast,0,2014-01-05 20:15:00
2:35 PM,10.8,-4.7,50,30.40,10.0,North,-9999.0,-,N/A,,Mostly Cloudy,0,2014-01-05 20:35:00
2:55 PM,10.6,-3.5,53,30.41,10.0,North,-9999.0,-,N/A,,Mostly Cloudy,0,2014-01-05 20:55:00
3:15 PM,10.2,-2.6,56,30.42,10.0,North,-9999.0,-,N/A,,Overcast,0,2014-01-05 21:15:00
3:35 PM,9.3,-6.0,50,30.42,10.0,North,-9999.0,-,N/A,,Mostly Cloudy,0,2014-01-05 21:35:00
3:55 PM,9.9,-8.9,43,30.43,10.0,North,-9999.0,-,N/A,,Scattered Clouds,0,2014-01-05 21:55:00
4:15 PM,9.5,-9.9,41,30.44,10.0,North,-9999.0,-,N/A,,Scattered Clouds,0,2014-01-05 22:15:00
4:35 PM,8.6,-9.4,44,30.44,10.0,North,-9999.0,-,N/A,,Scattered Clouds,0,2014-01-05 22:35:00
4:55 PM,7.5,-9.9,45,30.45,10.0,NW,16.1,-,N/A,,Scattered Clouds,320,2014-01-05 22:55:00
5:15 PM,7.5,-9.6,46,30.46,10.0,North,-9999.0,-,N/A,,Clear,0,2014-01-05 23:15:00
5:35 PM,6.6,-6.5,55,30.46,10.0,North,-9999.0,-,N/A,,Scattered Clouds,0,2014-01-05 23:35:00
5:55 PM,5.9,-5.4,60,30.48,7.0,NNW,24.2,-,N/A,,Mostly Cloudy,330,2014-01-05 23:55:00
6:15 PM,2.7,-7.1,64,30.50,10.0,NNW,31.1,38.0,N/A,,Mostly Cloudy,340,2014-01-06 00:15:00
6:35 PM,0.7,-9.9,61,30.51,10.0,NNW,23.0,29.9,N/A,,Scattered Clouds,340,2014-01-06 00:35:00
6:55 PM,-0.4,-11.4,60,30.52,10.0,NNW,19.6,31.1,N/A,,Clear,340,2014-01-06 00:55:00
7:15 PM,-0.8,-11.2,61,30.52,10.0,NNW,17.3,-,N/A,,Scattered Clouds,330,2014-01-06 01:15:00
7:35 PM,-1.3,-10.7,65,30.53,10.0,North,-9999.0,-,N/A,,Mostly Cloudy,0,2014-01-06 01:35:00
7:55 PM,-2.2,-12.1,63,30.53,10.0,NNW,16.1,-,N/A,,Scattered Clouds,340,2014-01-06 01:55:00
8:15 PM,-2.9,-15.9,54,30.53,10.0,NNW,20.7,28.8,N/A,,Clear,340,2014-01-06 02:15:00
8:35 PM,-3.6,-15.9,56,30.54,10.0,North,-9999.0,-,N/A,,Clear,0,2014-01-06 02:35:00
8:55 PM,-4.2,-16.1,57,30.54,10.0,North,-9999.0,-,N/A,,Clear,0,2014-01-06 02:55:00
9:15 PM,-4.4,-16.4,56,30.54,10.0,NW,19.6,-,N/A,,Clear,320,2014-01-06 03:15:00
9:35 PM,-4.9,-16.6,57,30.54,10.0,North,-9999.0,-,N/A,,Clear,0,2014-01-06 03:35:00
9:55 PM,-5.8,-17.0,59,30.54,10.0,North,-9999.0,-,N/A,,Clear,0,2014-01-06 03:55:00
10:15 PM,-5.8,-17.1,58,30.54,10.0,North,-9999.0,-,N/A,,Clear,0,2014-01-06 04:15:00
10:35 PM,-6.7,-17.9,58,30.54,10.0,NW,6.9,-,N/A,,Clear,320,2014-01-06 04:35:00
10:55 PM,-7.6,-17.5,62,30.53,10.0,NW,5.8,-,N/A,,Clear,310,2014-01-06 04:55:00
11:15 PM,-8.7,-17.9,64,30.53,10.0,NW,5.8,-,N/A,,Clear,310,2014-01-06 05:15:00
11:35 PM,-8.5,-16.4,68,30.52,10.0,WNW,4.6,-,N/A,,Scattered Clouds,300,2014-01-06 05:35:00
11:55 PM,-8.3,-16.2,68,30.51,10.0,WNW,5.8,-,N/A,,Scattered Clouds,300,2014-01-06 05:55:00